This demonstration page uses our WeatherBlox Daily Observations layout. Learn more.

Left ArrowRight Arrow

39.92423, -83.80882

Hourly Observations for November 22, 2018

Temp ( °F °C ) Dew Point ( °F °C ) Humidity (%) Winds ( mph kmh ) Pressure ( in mb ) Visibility ( mi km ) Precip ( " mm )
12:56 am 00:56 Mostly Cloudy 31 -0.6 30 -1.1 96 96 NNE 6 9 30.39 1029 7 11.26538 N/A
1:24 am 01:24 Cloudy 30 -1 28 -2 93 93 ENE 8 13 30.42 1030 10 16.0934 N/A
1:56 am 01:56 Cloudy 30 -1.1 28 -2.2 92 92 NE 7 11 30.4 1030 10 16.0934 N/A
2:20 am 02:20 Mostly Cloudy 28 -2 27 -3 93 93 NE 8 13 30.42 1030 9 14.48406 N/A
2:56 am 02:56 Mostly Cloudy 29 -1.7 27 -2.8 92 92 NE 7 11 30.41 1030 10 16.0934 N/A
3:56 am 03:56 Mostly Cloudy 28 -2.2 26 -3.3 92 92 ENE 8 13 30.42 1030 10 16.0934 N/A
4:56 am 04:56 Cloudy 29 -1.7 26 -3.3 89 89 ENE 7 11 30.42 1030 10 16.0934 N/A
5:56 am 05:56 Cloudy 29 -1.7 27 -2.8 92 92 ENE 8 13 30.44 1031 10 16.0934 N/A
6:56 am 06:56 Partly Cloudy 27 -2.8 25 -3.9 92 92 ENE 7 11 30.46 1032 10 16.0934 N/A
7:56 am 07:56 Sunny 26 -3.3 24 -4.4 92 92 ENE 8 13 30.48 1032 10 16.0934 N/A
8:56 am 08:56 Mostly Sunny 29 -1.7 25 -3.9 85 85 E 13 20 30.49 1033 10 16.0934 N/A
9:56 am 09:56 Partly Cloudy 32 undefined 26 -3.3 79 79 E 12 19 30.5 1033 10 16.0934 N/A
10:56 am 10:56 Mostly Cloudy 33 0.6 26 -3.3 75 75 E 12 19 30.49 1033 10 16.0934 N/A
11:56 am 11:56 Mostly Sunny 35 1.7 27 -2.8 72 72 ESE 8 13 30.47 1032 10 16.0934 N/A
12:56 pm 12:56 Mostly Sunny 36 2.2 28 -2.2 73 73 E 8 13 30.45 1031 10 16.0934 N/A
1:56 pm 13:56 Mostly Sunny 37 2.8 28 -2.2 70 70 E 9 15 30.43 1030 10 16.0934 N/A
2:56 pm 14:56 Mostly Cloudy 37 2.8 28 -2.2 70 70 E 10 17 30.41 1030 10 16.0934 N/A
3:56 pm 15:56 Sunny 37 2.8 28 -2.2 70 70 ESE 12 19 30.4 1029 10 16.0934 N/A
4:56 pm 16:56 Sunny 34 1.1 27 -2.8 76 76 E 8 13 30.4 1029 10 16.0934 N/A
5:56 pm 17:56 Clear 31 -0.6 27 -2.8 85 85 E 7 11 30.41 1030 10 16.0934 N/A
6:56 pm 18:56 Clear 31 -0.6 27 -2.8 85 85 E 9 15 30.4 1029 10 16.0934 N/A
7:56 pm 19:56 Clear 31 -0.6 26 -3.3 82 82 E 14 22 30.4 1029 10 16.0934 N/A
8:56 pm 20:56 Clear 30 -1.1 25 -3.9 82 82 ESE 15 24 30.39 1029 10 16.0934 N/A
9:56 pm 21:56 Clear 29 -1.7 24 -4.4 82 82 ESE 15 24 30.39 1029 10 16.0934 N/A
10:56 pm 22:56 Clear 28 -2.2 24 -4.4 85 85 ESE 10 17 30.39 1029 10 16.0934 N/A
11:56 pm 23:56 Clear 29 -1.7 24 -4.4 82 82 ESE 12 19 30.37 1029 10 16.0934 N/A

Powered by AerisWeather